Location: Newark
(44.1906°N, 75.9681°W)
Time: 15:17:05
(UTC+00:00)

Envisat - Pass Details

Date: 24 January 2020
Orbit: 764 x 766 km, 98.1° (Epoch: 17 February)

Event Time Altitude Azimuth Distance (km) Brightness Sun altitude
Rises 23:04:49 0° 174° (S) 3,218 6.4 -11.3°
Reaches altitude 10° 23:07:08 10° 177° (S) 2,296 5.6 -11.7°
Maximum altitude 23:12:10 64° 259° (WSW) 847 3.5 -12.6°
Drops below altitude 10° 23:17:14 10° 341° (NNW) 2,312 5.6 -13.4°
Sets 23:19:34 0° 344° (NNW) 3,243 6.3 -13.8°
